#timestamp,LO_Frequency,Hit,StdDev 
1620572415.9,286047011.9,Y
1620572435.7,286046998.2,P
1620572455.5,286046997.1,N
1620572475.4,286046998.4,N
1620572495.2,286047000.8,N
1620572515.1,286047001.0,N
1620572516.0,286047001.0,N
1620572535.8,286047001.1,N
1620572555.6,286047000.6,N
1620572575.5,286047000.9,N
1620572595.3,286047000.2,N
1620572615.1,286047000.0,N
1620572635.9,286047000.9,N
1620572655.7,286047001.1,N
1620572675.6,286046998.4,N
1620572695.4,286046999.6,N
1620572715.3,286046999.4,N
1620572735.1,286046998.9,N
1620572736.0,286046998.9,N
1620572755.8,286046999.4,N
1620572775.7,286046999.2,N
1620572795.5,286046996.5,Y
1620572815.3,286046999.4,P
1620572835.2,286046996.9,P
1620572855.0,286046999.0,N
1620572855.9,286046999.0,N
1620572875.8,286047000.4,N
1620572895.6,286047000.8,N
1620572915.5,286047000.4,N
1620572935.3,286047001.1,N
1620572955.1,286046998.6,N
1620572975.9,286047001.2,N
1620572995.7,286046998.5,N
1620573015.5,286046998.3,N
1620573035.4,286047001.1,N
1620573055.2,286046998.5,N
1620573075.1,286046998.5,N
1620573076.0,286046998.5,N
1620573095.8,286046998.8,N
1620573115.6,286047011.9,Y
1620573135.5,286046999.4,P
1620573155.3,286047000.7,P
1620573175.1,286047001.1,N
1620573195.9,286047000.5,N
1620573215.7,286046999.1,N
1620573235.6,286046998.4,N
1620573255.4,286047000.7,N
1620573275.2,286047000.6,N
1620573295.1,286047001.0,N
1620573296.0,286047001.0,N
1620573315.8,286047000.9,N
1620573335.6,286046998.3,N
1620573355.5,286047000.8,N
1620573375.3,286046998.3,N
1620573395.2,286046999.0,N
1620573415.9,286046998.6,N
1620573435.7,286047000.3,N
1620573455.6,286047000.6,N
1620573475.4,286047001.2,N
1620573495.2,286046999.4,N
1620573515.1,286046998.8,N
1620573516.0,286046998.8,N
1620573535.8,286046998.8,N
1620573555.7,286046997.0,N
1620573575.5,286046996.9,N
1620573595.3,286046999.2,N
1620573615.2,286046999.5,N
1620573635.0,286046999.2,N
1620573635.9,286046999.2,N
1620573655.8,286046996.5,Y
1620573675.6,286046999.1,P
1620573695.4,286046998.2,P
1620573715.3,286047000.6,N
1620573735.1,286047000.8,N
1620573755.8,286046998.9,N
1620573775.7,286047000.1,N
1620573795.5,286047000.1,N
1620573815.4,286047002.2,N
1620573835.2,286047002.0,N
1620573855.0,286047002.0,N
1620573855.9,286047002.0,N
1620573875.8,286047003.9,N
1620573895.6,286047004.1,N
1620573915.4,286047004.1,N
1620573935.3,286047005.1,N
1620573955.1,286047009.2,Y
1620573975.9,286047010.8,P
1620573995.7,286047009.8,N
1620574015.5,286047009.7,N
1620574035.4,286047010.1,N
1620574055.2,286047008.8,N
1620574075.1,286047006.7,N
1620574076.0,286047006.7,N
1620574095.8,286047004.8,N
1620574115.6,286047002.9,N
1620574135.5,286047003.8,N
1620574155.3,286047003.7,N
1620574175.1,286047007.2,N
1620574195.9,286047006.5,N
1620574215.7,286047009.7,Y
1620574235.6,286047002.5,P
1620574255.4,286047002.5,N
1620574275.2,286047002.3,N
1620574295.1,286047002.0,N
1620574296.0,286047002.0,N
1620574315.8,286047000.4,N
1620574335.6,286047000.0,N
1620574355.5,286047002.2,N
1620574375.3,286047002.2,N
1620574395.2,286047003.6,N
1620574415.9,286047003.4,N
1620574435.7,286047005.7,Y
1620574455.6,286047002.2,P
1620574475.4,286047002.7,P
1620574495.3,286047011.9,P
1620574515.1,286047002.3,N
1620574516.0,286047002.3,N
1620574535.8,286047000.3,N
1620574555.7,286047000.3,N
1620574575.5,286046998.9,N
1620574595.3,286046999.2,N
1620574615.2,286046998.5,N
1620574635.0,286046998.3,N
1620574635.9,286046998.3,N
1620574655.8,286046998.1,N
1620574675.6,286047000.8,N
1620574695.4,286047011.9,Y
1620574715.3,286046995.6,P
1620574735.1,286046996.2,N
1620574755.8,286046993.8,N
1620574775.7,286046993.6,N
1620574795.5,286046994.0,N
1620574815.4,286046993.8,N
1620574835.2,286046994.0,N
1620574855.0,286046994.3,N
1620574855.9,286046994.3,N
1620574875.8,286046992.2,Y
1620574895.6,286046997.7,P
1620574915.4,286046997.5,N
1620574935.3,286046998.0,N
1620574955.1,286046995.2,Y
1620574975.9,286047004.2,P
1620574995.7,286047006.6,N
1620575015.5,286047008.3,N
1620575035.4,286047010.6,N
1620575055.2,286047008.7,N
1620575075.0,286047008.0,N
1620575075.9,286047008.0,N
1620575095.8,286047010.6,N
1620575115.6,286047008.2,N
1620575135.5,286047008.9,N
1620575155.3,286047006.7,N
1620575175.1,286047006.7,N
1620575195.9,286047006.6,N
1620575215.7,286047006.7,N
1620575235.5,286047006.9,N
1620575255.4,286047005.6,N
1620575275.2,286047002.2,N
1620575295.1,286047002.7,N
1620575296.0,286047002.7,N
1620575315.8,286047000.9,N
1620575335.6,286047001.2,N
1620575355.5,286046999.1,N
1620575375.3,286046996.8,N
1620575395.1,286046996.8,N
1620575415.9,286046998.4,N
1620575435.7,286046996.8,N
1620575455.6,286046995.6,N
1620575475.4,286046993.9,N
1620575495.2,286046994.2,N
1620575515.1,286047002.7,N
1620575516.0,286047002.7,N
1620575535.8,286047009.4,N
1620575555.6,286047008.6,N
1620575575.5,286047006.7,N
1620575595.3,286047005.8,N
1620575615.2,286047005.6,N
1620575635.9,286047003.3,N
1620575655.7,286047002.1,N
1620575675.6,286046999.7,N
1620575695.4,286047000.4,N
1620575715.2,286046998.6,N
1620575735.1,286046998.5,N
1620575736.0,286046998.5,N
1620575755.8,286046999.1,N
1620575775.7,286046996.7,N
1620575795.5,286046998.0,N
1620575815.3,286046995.3,N
1620575835.2,286046995.9,N
1620575855.0,286046995.6,N
1620575855.9,286046995.6,N
1620575875.8,286046993.8,N
1620575895.6,286046993.8,N
1620575915.4,286046994.5,N
1620575935.3,286046991.9,N
1620575955.1,286046991.9,N
1620575975.8,286046992.3,N
1620575995.7,286046992.5,N
